Regional Weather Roundup
Issued by NWS Little Rock, AR

Home | Current Version | Previous Version | Text Only | Print | Product List | Glossary On
Versions: 1 2 3 4 5 6 7 8 9 10 11 12 13 14 15 16 17 18 19 20 21 22 23 24 25 26 27 28 29 30 31
000
ASUS44 KLZK 171105
RWRLZK

WEATHER ROUNDUP FOR ARKANSAS
NATIONAL WEATHER SERVICE LITTLE ROCK AR
500 AM CST WED JAN 17 2018

NOTE: "FAIR" INDICATES FEW OR NO CLOUDS BELOW 12,000 FEET WITH NO
SIGNIFICANT WEATHER AND/OR OBSTRUCTIONS TO VISIBILITY.

ARZ001-003-010-029-171200-
NORTHWEST ARKANSAS

CITY           SKY/WX    TMP DP  RH WIND       PRES   REMARKS
FAYETTEVILLE   CLOUDY     0  -3  87 CALM      30.68S
FORT SMITH     CLOUDY     7   2  80 SW5       30.76S WCI  -2
HARRISON       CLOUDY     2  -2  83 W5        30.64F WCI  -8
BENTONVILLE    CLOUDY     1  -3  83 CALM      30.68S
ROGERS         CLOUDY    -1  -4  87 CALM      30.66S
SILOAM SPGS    CLOUDY     1  -3  83 CALM      30.69R
HIGHFILL       CLOUDY     1  -3  83 CALM      30.66S
$$

ARZ004-005-016-171200-
NORTH CENTRAL ARKANSAS

CITY           SKY/WX    TMP DP  RH WIND       PRES   REMARKS
BATESVILLE     CLEAR      5   1  83 NW6       30.74S WCI  -6
FLIPPIN        CLOUDY    -1  -4  87 W5        30.72F WCI -11
MTN HOME       CLOUDY     0  -2  91 CALM      30.68S
$$

ARZ040-041-171200-
WEST CENTRAL ARKANSAS

CITY           SKY/WX    TMP DP  RH WIND       PRES   REMARKS
MENA           PTCLDY     5   5 100 CALM      30.68S
MOUNT IDA      CLOUDY     5   1  83 CALM      30.69S
$$

ARZ009-017-025-026-028-171200-
NORTHEAST ARKANSAS

CITY           SKY/WX    TMP DP  RH WIND       PRES   REMARKS
JONESBORO      FAIR       9   3  77 N5        30.73R WCI   1
NEWPORT        FAIR       7   2  80 NW10      30.75S WCI  -8
BLYTHEVILLE    FAIR       0  -4  83 N7        30.72R WCI -13
$$

ARZ022-023-033-042-044-171200-
CENTRAL ARKANSAS

CITY           SKY/WX    TMP DP  RH WIND       PRES   REMARKS
LITTLE ROCK    CLEAR      8   2  76 N9        30.76S WCI  -5
N LITTLE ROCK    N/A      7   1  76 N5        30.79S WCI  -1
JACKSONVILLE   CLEAR      7   1  75 NW3       30.73S
SEARCY         FAIR       7   2  80 NW6       30.75S WCI  -3
HOT SPRINGS    CLEAR     11   2  67 N3        30.73R
RUSSELLVILLE   CLEAR      8   1  73 NW3       30.74S
CLINTON        FAIR       7   1  78 CALM      30.74S
$$

ARZ036-171200-
EAST ARKANSAS

CITY           SKY/WX    TMP DP  RH WIND       PRES   REMARKS
WEST MEMPHIS   FAIR       5   3  91 CALM      30.72S
$$

ARZ050-053-066-070-073-171200-
SOUTHWEST ARKANSAS

CITY           SKY/WX    TMP DP  RH WIND       PRES   REMARKS
ARKADELPHIA    FAIR       7   1  76 CALM      30.77S
CAMDEN         FAIR       5   0  78 CALM      30.76S
TEXARKANA      PTCLDY    10   3  73 N3        30.74S
EL DORADO      FAIR       7   5  91 N3        30.74S
DE QUEEN       PTCLDY     7   5  91 CALM      30.75R
$$

ARZ056-057-069-171200-
SOUTHEAST ARKANSAS

CITY           SKY/WX    TMP DP  RH WIND       PRES   REMARKS
PINE BLUFF     FAIR       8   1  73 N8        30.75S WCI  -4
STUTTGART      FAIR       7   2  80 N10       30.75S WCI  -8
MONTICELLO     FAIR       8   2  76 CALM      30.73S

$$






USA.gov is the U.S. government's official web portal to all federal, state and local government web resources and services.